Location: Celina Division
(33.3022°N, 96.7580°W)
Time: 12:17:54
(UTC+00:00)

Nadezhda 4 Rocket - Pass Details

Date: 08 December 2021
Orbit: 949 x 992 km, 82.9° (Epoch: 23 January)

Event Time Altitude Azimuth Distance (km) Brightness Sun altitude
Rises 12:26:43 0° 206° (SSW) 3,621 6.9 -10.8°
Reaches altitude 10° 12:29:22 10° 214° (SW) 2,684 6.2 -10.2°
Maximum altitude 12:35:02 38° 281° (WNW) 1,433 4.4 -9.1°
Drops below altitude 10° 12:40:47 10° 349° (NNW) 2,724 6.0 -8.0°
Sets 12:43:31 0° 357° (N) 3,682 6.8 -7.5°
